ATLAS 5 CENTAUR DEB, 43981

Orbit data source: Space-Track

ATLAS 5 CENTAUR DEB, 43981 is space debris in HEO originally from a launch on Wed, 17 Sep 2014 UTC launched from the Air Force Eastern Test Range (AFETR). Debris objects in space refer to the collection of defunct objects orbiting the Earth. Examples of debris include non-operational satellites, rocket bodies, and fragments generated from explosions, collisions, or faulty payload assembly.

Loading next visibility...
Identifier
43981, 2014-055AL
Orbit
HEO
Country
Flag of USUS
Related business
Flag of USUnited Launch Alliance/Lockheed Martin (US)
Manufacturer
Unknown
Mission
Spacecraft
Bus & Motor
Unknown
Mass
Unknown
Launch date (UTC)
2014-09-17 (11 years ago)
Launch vehicle
Unknown
Launch site
Air Force Eastern Test Range (AFETR)
Object type
Payload
Rocket body
Debris
Shape & HBR
Unknown shape, 1.1 m
Radar Cross Section
Small (<0.1 m²)

Expand to show TLE details & history
Last TLE update: 4 days ago

TLE from 4 days ago
0 ATLAS 5 CENTAUR DEB
1 43981U 14055AL  25307.44814475  .00000035  00000-0  00000-0 0  9992
2 43981  19.4964 160.6005 5196778 128.8215 290.3183  1.78794881 46748
Epoch: 2025-11-03T10:45Z
TLE epoch observation values (Epoch: 2025-11-03T10:45:19.706Z)
Latitude
-0.00004°
Longitude
-43.57644°
Altitude
24,629.078 km
Speed
3.437 km/s
True Right ascension
10h 42m 49s
True Declination
0° 00' 00"
Sunlit
Object was in daylight at epoch
Visualization orbit readout
Latitude
Unknown
Longitude
Unknown
Altitude
Unknown
Speed
Unknown
Apparent Right ascension
Unknown
Apparent Declination
Unknown
Sunlit
N/A
Visualization observer readout
Local Sidereal Time
08:09:19
Azimuth
Unknown
Elevation
Unknown
Doppler factor
Unknown
Orbital elements
Apogee altitude
37,201.269 km
Perigee altitude
7,395.938 km
Semi-major axis
28,676.741 km
Eccentricity
0.51968
Inclination
19.4964°
RAAN
160.6005°
Arg. of periapsis
128.8215°
True anomaly
231.23122°
Mean anomaly
290.3183°
Eccentric anomaly
260.91637°
Mean motion
0.44694 °/min
Orbital period
805.48 mins
BSTAR
0
Loading maneuver chart data...
Computing Atmospheric mass density...

Documentation

Showing up to 5 results
|